Regional Weather Roundup
Issued by NWS

Home | Current Version | Previous Version | Graphics & Text | Print | Product List | Glossary Off
Versions: 1 2 3 4 5 6 7 8 9 10 11 12 13 14 15 16 17 18 19 20 21 22 23 24 25 26 27 28 29 30 31 32 33 34 35 36 37 38 39 40 41 42 43 44 45 46 47 48 49 50

000
ASUS43 KTOP 230608
RWRKS

WEATHER ROUNDUP FOR KANSAS
NATIONAL WEATHER SERVICE GOODLAND KS
100 AM CDT TUE MAY 23 2017

NOTE:  "FAIR" INDICATES FEW OR NO CLOUDS BELOW 12,000 FEET WITH NO
SIGNIFICANT WEATHER AND/OR OBSTRUCTIONS TO VISIBILITY.

KSZ001>006-013>018-027>032-041>047-230700-
NORTHWEST KANSAS

CITY           SKY/WX    TMP DP  RH WIND       PRES   REMARKS
GOODLAND       PTCLDY    46  43  89 N17       30.11S
6HR MIN TEMP:  46; 6HR MAX TEMP:  63; 6HR PCP:  0.04;

HAYS           CLOUDY    55  48  77 N13       30.01R
HILL CITY      CLOUDY    51  47  86 N13       30.05R
6HR MIN TEMP:  51; 6HR MAX TEMP:  74; 6HR PCP:  0.01;

RUSSELL        CLOUDY    54  52  93 N14       30.00R
6HR MIN TEMP:  53; 6HR MAX TEMP:  63; 6HR PCP:  0.08;

$$

KSZ061>065-074>080-084>089-230700-
SOUTHWEST KANSAS

CITY           SKY/WX    TMP DP  RH WIND       PRES   REMARKS
DODGE CITY     CLEAR     51  46  83 N12       30.04R
6HR MIN TEMP:  48; 6HR MAX TEMP:  63; 6HR PCP:  0.01;

ELKHART          N/A     51  40  66 NW5         N/A
GARDEN CITY    CLOUDY    53  45  74 N18G30    30.05R
6HR MIN TEMP:  51; 6HR MAX TEMP:  68; 6HR PCP:  0.02;

GREAT BEND     PTCLDY    56  51  84 N22G28    29.97S
LIBERAL        CLOUDY    53  49  86 N6        30.07S
PRATT          LGT RAIN  52  49  87 N18       29.98S
6HR MIN TEMP:  49; 6HR MAX TEMP:  63; 6HR PCP:  0.03;

$$

KSZ066>073-081>083-090>101-230700-
SOUTHEAST KANSAS

CITY           SKY/WX    TMP DP  RH WIND       PRES   REMARKS
CHANUTE        PTCLDY    60  55  83 SW6       29.89F
6HR MIN TEMP:  60; 6HR MAX TEMP:  67; 6HR PCP: TRACE;

COFFEYVILLE    CLOUDY    60  58  92 W6        29.90F
6HR MIN TEMP:  60; 6HR MAX TEMP:  70; 6HR PCP: TRACE;

HUTCHINSON     CLOUDY    58  57  97 CALM      29.94R
6HR MIN TEMP:  51; 6HR MAX TEMP:  64;

MEDICINE LODGE   N/A     56  54  93 NW8       29.96R
NEWTON         CLOUDY    56  55  97 SW3       29.93S
PARSONS        MOCLDY    61  56  83 W5        29.91F
6HR MIN TEMP:  61; 6HR MAX TEMP:  68; 6HR PCP:  0.01;

WICHITA INTL   MOCLDY    54  54 100 W5        29.93S FOG
6HR MIN TEMP:  52; 6HR MAX TEMP:  61;

WICHITA JABRA  MOCLDY    56  56 100 W7        29.92F
6HR MIN TEMP:  51; 6HR MAX TEMP:  62;

WICHITA MCCONL CLEAR     56  55  95 NW6       29.93S
WINFIELD       CLOUDY    59  58  96 W9        29.94S
6HR MIN TEMP:  56; 6HR MAX TEMP:  65; 6HR PCP:  0.05;

$$

KSZ007>012-019>026-033>040-048>060-102>105-230700-
NORTHEAST KANSAS

CITY           SKY/WX    TMP DP  RH WIND       PRES   REMARKS
CONCORDIA      LGT RAIN  54  52  93 NW21G31   29.98R
6HR MIN TEMP:  54; 6HR MAX TEMP:  65; 6HR PCP:  0.05;

EMPORIA        CLEAR     54  54 100 CALM      29.89S FOG
6HR MIN TEMP:  52; 6HR MAX TEMP:  63;

LAWRENCE       FOG       54  54 100 CALM      29.89F VSB 1/4
6HR MIN TEMP:  53; 6HR MAX TEMP:  61; 6HR PCP:  0.01;

MANHATTAN      CLOUDY    56  54  93 CALM      29.90R
6HR MIN TEMP:  56; 6HR MAX TEMP:  65; 6HR PCP:  0.01;

MARYSVILLE     CLOUDY    54  52  94 NW8       29.90F
OLATHE IND     CLEAR     55  54  96 E5        29.89F
6HR MIN TEMP:  55; 6HR MAX TEMP:  62; 6HR PCP:  0.01;

OLATHE EXE     PTCLDY    54  54 100 CALM      29.89F
6HR MIN TEMP:  54; 6HR MAX TEMP:  61; 6HR PCP:  0.04;

SALINA         RAIN      57  54  89 NW14      29.96R
6HR MIN TEMP:  57; 6HR MAX TEMP:  65; 6HR PCP:  0.09;

TOPEKA BILLARD FOG       55  55 100 CALM      29.89S VSB 1/2
6HR MIN TEMP:  53; 6HR MAX TEMP:  62; 6HR PCP:  0.01;

TOPEKA FORBES  FOG       53  53 100 CALM      29.89S VSB 3/4
6HR MIN TEMP:  53; 6HR MAX TEMP:  62; 6HR PCP:  0.01;

$$




USA.gov is the U.S. government's official web portal to all federal, state and local government web resources and services.